DW8219 Weather Reports


Display with metric or nautical units.
time (UTC)temp
F
wind
direction
speed
MPH
gust
MPH
rain 1hr
in
rain 24hr
in
rain mn
in
humidity
%
barometer
mb
20260508030904 51 313 0.0 0.0 0.00 0.16 0.16 52 1007.6
20260508030404 51 313 0.0 0.0 0.00 0.16 0.16 52 1007.6
20260508025905 51 313 0.0 0.0 0.00 0.16 0.16 51 1007.6
20260508025405 51 314 0.0 0.0 0.00 0.16 0.16 51 1007.6
20260508024905 51 314 0.0 0.0 0.00 0.16 0.16 51 1007.7
20260508024405 52 313 0.0 0.0 0.00 0.16 0.16 51 1007.7
20260508023905 52 313 0.0 0.0 0.00 0.16 0.16 49 1007.7
20260508023405 52 313 0.0 0.0 0.00 0.16 0.16 49 1007.7
20260508022903 52 314 0.0 0.0 0.00 0.16 0.16 49 1007.7
20260508022404 53 313 0.0 0.0 0.00 0.16 0.16 47 1007.7
20260508021904 53 313 0.0 0.0 0.00 0.16 0.16 47 1007.7
20260508021404 53 313 0.0 0.0 0.00 0.16 0.16 46 1007.7
20260508015903 54 313 0.0 0.0 0.00 0.17 0.16 45 1007.6
20260508015404 55 314 0.0 0.0 0.00 0.17 0.16 44 1007.5
20260508014903 55 313 0.0 0.0 0.00 0.18 0.16 44 1007.4
20260508014403 55 313 0.0 0.0 0.00 0.19 0.16 44 1007.4
20260508013904 55 313 0.0 0.0 0.00 0.19 0.16 44 1007.5
20260508013403 55 312 0.0 0.0 0.00 0.19 0.16 43 1007.6
20260508012404 55 312 0.0 0.0 0.00 0.19 0.16 44 1007.5
20260508011904 54 312 0.0 0.0 0.00 0.19 0.16 46 1007.4
20260508010904 55 312 0.0 0.0 0.00 0.19 0.16 44 1007.3
20260508010404 55 312 0.0 0.0 0.00 0.19 0.16 43 1007.2
20260508005904 55 312 0.0 0.0 0.00 0.19 0.16 43 1007.2
20260508005404 56 312 0.0 0.0 0.00 0.19 0.16 41 1007.1
20260508004905 56 312 0.0 0.0 0.00 0.19 0.16 40 1007.2
20260508003904 56 312 0.0 0.0 0.00 0.19 0.16 41 1006.9
20260508003404 56 312 0.0 0.0 0.00 0.19 0.16 41 1006.9
20260508002906 57 312 0.0 0.0 0.00 0.19 0.16 39 1006.8
20260508002404 57 312 0.0 0.0 0.00 0.19 0.16 38 1006.7
20260508001904 57 312 0.0 1.0 0.00 0.19 0.16 39 1006.7
20260508000905 57 17 0.0 0.0 0.00 0.19 0.16 38 1006.6
20260508000405 58 17 0.0 0.0 0.00 0.19 0.16 37 1006.5
20260507235905 58 17 0.0 1.0 0.00 0.19 0.16 37 1006.5
20260507235404 58 350 0.0 0.0 0.00 0.19 0.16 38 1006.5
20260507234904 58 351 2.0 9.0 0.00 0.19 0.16 38 1006.5
20260507234405 58 325 1.0 6.0 0.00 0.19 0.16 38 1006.5
20260507233904 59 317 0.0 1.0 0.00 0.19 0.16 36 1006.4
20260507233405 59 69 0.0 1.0 0.00 0.19 0.16 37 1006.3
20260507232904 59 269 0.0 0.0 0.00 0.19 0.16 38 1006.1
20260507232405 59 272 0.0 1.0 0.00 0.19 0.16 36 1006.1
20260507231904 60 281 0.0 5.0 0.00 0.19 0.16 36 1006.2
20260507231405 60 315 0.0 3.0 0.00 0.19 0.16 35 1006.2
20260507230904 60 294 2.0 8.0 0.00 0.19 0.16 36 1006.3
20260507230404 60 329 0.0 7.0 0.00 0.19 0.16 37 1006.2
20260507225904 60 32 0.0 5.0 0.00 0.19 0.16 35 1006.2
20260507225405 61 34 1.0 6.0 0.00 0.19 0.16 35 1006.1
20260507224906 61 328 0.0 1.0 0.00 0.19 0.16 38 1006.1
20260507224404 61 320 1.0 5.0 0.00 0.19 0.16 35 1006.1
20260507223905 61 353 3.0 12.0 0.00 0.19 0.16 35 1006.2
20260507223406 62 321 0.0 10.0 0.00 0.19 0.16 35 1006.2
20260507222905 62 352 3.0 10.0 0.00 0.19 0.16 35 1006.1
20260507222404 62 325 1.0 6.0 0.00 0.19 0.16 34 1006.2
20260507221904 62 345 3.0 12.0 0.00 0.19 0.16 34 1006.2
20260507221404 62 317 4.0 12.0 0.00 0.19 0.16 34 1006.1
20260507220905 62 311 2.0 8.0 0.00 0.19 0.16 34 1006.1
20260507220405 62 309 5.0 12.0 0.00 0.19 0.16 34 1006.2
20260507215405 63 315 3.0 12.0 0.00 0.19 0.16 33 1006.2
20260507214906 63 299 3.0 12.0 0.00 0.19 0.16 35 1006.1
20260507214404 62 314 3.0 12.0 0.00 0.19 0.16 33 1006.1
20260507213406 63 306 1.0 12.0 0.00 0.19 0.16 33 1006.0
20260507212905 63 299 2.0 12.0 0.00 0.19 0.16 34 1005.9
20260507212405 63 317 3.0 8.0 0.00 0.19 0.16 34 1006.0
20260507211906 63 324 6.0 17.0 0.00 0.19 0.16 34 1005.9
20260507211404 62 46 2.0 12.0 0.00 0.19 0.16 37 1005.8
20260507210405 63 314 0.0 3.0 0.00 0.19 0.16 36 1005.9
20260507205904 64 23 1.0 8.0 0.00 0.19 0.16 36 1005.9
20260507205405 63 18 2.0 16.0 0.00 0.19 0.16 34 1005.7
20260507204905 63 336 3.0 16.0 0.00 0.19 0.16 40 1005.8
20260507204405 63 344 6.0 14.0 0.00 0.19 0.16 35 1005.8
20260507203905 63 333 6.0 15.0 0.00 0.19 0.16 37 1005.8
20260507203404 62 349 1.0 13.0 0.00 0.19 0.16 37 1005.9
20260507202903 62 351 0.0 5.0 0.00 0.19 0.16 37 1005.9
20260507202404 61 282 5.0 12.0 0.00 0.19 0.16 37 1006.0
20260507201904 62 291 1.0 7.0 0.00 0.19 0.16 36 1005.9
20260507201403 61 253 5.0 10.0 0.00 0.19 0.16 36 1005.9
20260507195904 65 311 5.0 12.0 0.00 0.20 0.16 35 1005.9
20260507194904 64 336 3.0 12.0 0.00 0.20 0.16 34 1006.0
20260507194404 64 320 2.0 10.0 0.00 0.20 0.16 38 1006.0
20260507192405 65 336 2.0 14.0 0.00 0.20 0.16 38 1006.4
20260507191904 64 333 2.0 8.0 0.00 0.20 0.16 38 1006.3
20260507191404 65 326 2.0 10.0 0.00 0.20 0.16 43 1006.5
20260507190904 64 292 4.0 12.0 0.00 0.20 0.16 40 1006.6
20260507190404 63 31 2.0 12.0 0.00 0.20 0.16 37 1006.7
20260507185904 64 330 2.0 16.0 0.00 0.20 0.16 42 1006.6
20260507185404 64 264 5.0 9.0 0.00 0.20 0.16 35 1006.7
20260507184904 64 354 5.0 14.0 0.00 0.21 0.16 41 1006.7
20260507183904 63 296 6.0 13.0 0.00 0.21 0.16 38 1006.8
20260507182904 64 265 4.0 17.0 0.00 0.21 0.16 37 1007.0
20260507182404 65 340 2.0 15.0 0.00 0.21 0.16 44 1007.0
20260507181404 62 53 0.0 5.0 0.00 0.21 0.16 40 1007.1
20260507180904 63 6 2.0 9.0 0.00 0.21 0.16 39 1007.3
20260507180404 62 296 5.0 15.0 0.00 0.21 0.16 37 1007.3
20260507175905 63 301 2.0 9.0 0.00 0.21 0.16 40 1007.4
20260507175404 63 324 3.0 12.0 0.00 0.21 0.16 36 1007.5
20260507174904 63 322 6.0 18.0 0.00 0.21 0.16 38 1007.5
20260507174404 63 295 5.0 12.0 0.00 0.21 0.16 43 1007.4
20260507173904 62 71 2.0 13.0 0.00 0.21 0.16 36 1007.6
20260507172904 62 291 4.0 10.0 0.00 0.22 0.16 42 1007.8
20260507171905 63 303 2.0 10.0 0.00 0.23 0.16 42 1008.0
20260507171405 62 325 6.0 15.0 0.00 0.23 0.16 41 1007.9
20260507170905 62 316 7.0 15.0 0.00 0.23 0.16 39 1008.0
20260507170405 61 301 5.0 15.0 0.00 0.23 0.16 38 1008.1
20260507165904 62 325 6.0 12.0 0.00 0.23 0.16 38 1008.2
20260507165405 62 303 7.0 18.0 0.00 0.23 0.16 42 1008.1
20260507164905 62 257 1.0 12.0 0.00 0.24 0.16 42 1008.1
20260507164404 60 240 0.0 8.0 0.00 0.24 0.16 37 1008.3
20260507163904 60 310 4.0 13.0 0.00 0.24 0.16 39 1008.3
20260507163405 61 293 6.0 15.0 0.00 0.24 0.16 39 1008.4
20260507162904 61 294 7.0 12.0 0.00 0.25 0.16 37 1008.6
20260507162404 61 293 4.0 13.0 0.00 0.25 0.16 39 1008.6
20260507161905 61 312 5.0 12.0 0.00 0.25 0.16 42 1008.7
20260507161405 60 302 4.0 12.0 0.00 0.25 0.16 41 1008.7
20260507160906 60 351 2.0 7.0 0.00 0.25 0.16 38 1008.8
20260507160405 60 334 2.0 10.0 0.00 0.25 0.16 41 1008.9
20260507155406 61 354 1.0 3.0 0.00 0.25 0.16 39 1008.8
20260507154905 60 309 1.0 12.0 0.00 0.25 0.16 41 1008.8
20260507154405 60 338 4.0 10.0 0.00 0.25 0.16 42 1008.9
20260507152905 60 334 3.0 10.0 0.00 0.25 0.16 40 1009.1
20260507152405 59 286 2.0 10.0 0.00 0.25 0.16 42 1009.2
20260507151905 59 313 3.0 10.0 0.00 0.25 0.16 40 1009.3
20260507151405 59 314 3.0 10.0 0.00 0.25 0.16 45 1009.3
20260507150905 58 294 7.0 15.0 0.00 0.25 0.16 41 1009.3
20260507150405 58 303 8.0 17.0 0.00 0.25 0.16 40 1009.4
20260507145906 57 0 2.0 14.0 0.00 0.25 0.16 44 1009.4
20260507145405 57 323 3.0 14.0 0.00 0.25 0.16 43 1009.3
20260507144905 57 305 9.0 16.0 0.00 0.25 0.16 41 1009.5
20260507143905 57 320 4.0 14.0 0.00 0.25 0.16 44 1009.3
20260507143404 56 324 7.0 14.0 0.00 0.25 0.16 43 1009.3
20260507142904 56 322 7.0 12.0 0.00 0.25 0.16 47 1009.3
20260507142403 56 317 3.0 10.0 0.00 0.25 0.16 48 1009.3
20260507141404 56 318 3.0 12.0 0.00 0.25 0.16 49 1009.3
20260507140904 55 298 6.0 15.0 0.00 0.25 0.16 48 1009.4
20260507140404 55 292 7.0 14.0 0.00 0.25 0.16 50 1009.3
20260507135903 55 286 2.0 12.0 0.00 0.25 0.16 53 1009.4
20260507134905 54 320 5.0 12.0 0.00 0.25 0.16 56 1009.3
20260507133904 53 329 3.0 12.0 0.00 0.25 0.16 63 1009.4
20260507133404 53 314 0.0 7.0 0.00 0.25 0.16 64 1009.5
20260507132905 53 334 2.0 10.0 0.00 0.25 0.16 65 1009.5
20260507132403 53 324 6.0 12.0 0.00 0.25 0.16 65 1009.6
20260507131906 53 336 0.0 1.0 0.00 0.25 0.16 65 1009.5
20260507131404 53 304 2.0 8.0 0.00 0.25 0.16 71 1009.5
20260507130904 52 317 3.0 9.0 0.00 0.25 0.16 73 1009.3
20260507125903 52 318 0.0 6.0 0.00 0.25 0.16 76 1009.4
20260507125404 51 286 1.0 10.0 0.00 0.25 0.16 75 1009.3
20260507124904 51 323 2.0 10.0 0.00 0.25 0.16 76 1009.4
20260507124404 51 322 4.0 9.0 0.00 0.25 0.16 77 1009.5
20260507123904 51 324 6.0 12.0 0.00 0.25 0.16 78 1009.7
20260507123404 51 327 1.0 7.0 0.00 0.25 0.16 80 1009.5
20260507122904 51 310 4.0 9.0 0.00 0.25 0.16 81 1009.5
20260507122404 50 302 3.0 12.0 0.00 0.25 0.16 82 1009.5
20260507121905 50 320 7.0 12.0 0.00 0.25 0.16 83 1009.5
20260507121405 49 309 2.0 8.0 0.00 0.25 0.16 83 1009.4
20260507120404 49 314 6.0 12.0 0.00 0.25 0.16 84 1009.3
20260507115905 49 321 6.0 13.0 0.00 0.25 0.16 84 1009.3
20260507114905 49 323 1.0 12.0 0.00 0.25 0.16 85 1009.3
20260507114404 49 278 2.0 10.0 0.00 0.25 0.16 85 1009.2
20260507113904 49 295 5.0 10.0 0.00 0.25 0.16 85 1009.2
20260507112905 48 306 4.0 9.0 0.00 0.25 0.16 86 1009.0
20260507112404 48 312 1.0 10.0 0.00 0.25 0.16 86 1009.0
20260507111905 48 298 3.0 8.0 0.00 0.25 0.16 86 1009.0
20260507110904 48 273 1.0 5.0 0.00 0.25 0.16 87 1008.7
20260507110406 48 311 0.0 0.0 0.00 0.25 0.16 87 1008.7
20260507105905 48 285 0.0 0.0 0.00 0.25 0.16 87 1008.7
20260507105404 48 285 0.0 0.0 0.00 0.25 0.16 87 1008.7
20260507104904 48 299 0.0 0.0 0.00 0.25 0.16 87 1008.7
20260507104405 48 313 0.0 8.0 0.00 0.25 0.16 87 1008.8
20260507103904 48 286 1.0 8.0 0.00 0.25 0.16 87 1008.5
20260507102904 48 298 5.0 9.0 0.00 0.25 0.16 88 1008.4
20260507102405 48 279 3.0 9.0 0.00 0.25 0.16 88 1008.4
20260507101906 48 314 2.0 7.0 0.00 0.25 0.16 88 1008.2
20260507101405 48 326 2.0 8.0 0.00 0.25 0.16 89 1008.2
20260507100905 48 313 4.0 9.0 0.00 0.25 0.16 88 1008.1
20260507095905 48 301 4.0 12.0 0.01 0.25 0.16 89 1007.9
20260507095405 48 282 1.0 8.0 0.01 0.25 0.16 90 1007.8
20260507094905 48 306 2.0 8.0 0.01 0.25 0.16 90 1007.8
20260507093904 48 297 2.0 7.0 0.02 0.25 0.16 91 1007.9
20260507093404 48 300 5.0 10.0 0.02 0.25 0.16 91 1007.9
20260507092905 48 288 3.0 9.0 0.02 0.25 0.16 91 1007.9
20260507092405 48 320 1.0 9.0 0.03 0.25 0.16 91 1007.9
20260507091904 48 311 1.0 8.0 0.03 0.25 0.16 91 1007.9
20260507091404 48 278 2.0 6.0 0.03 0.25 0.16 91 1008.0
20260507090905 49 298 1.0 7.0 0.04 0.25 0.16 91 1008.1
20260507085905 49 304 0.0 3.0 0.03 0.24 0.15 91 1007.8
20260507084405 49 282 1.0 7.0 0.05 0.24 0.15 91 1007.8
20260507083905 49 297 1.0 3.0 0.05 0.23 0.14 91 1007.9
20260507082904 49 252 1.0 9.0 0.08 0.23 0.14 91 1008.0
20260507082404 49 294 0.0 3.0 0.08 0.22 0.13 91 1007.9
20260507081404 49 312 0.0 5.0 0.08 0.22 0.13 90 1007.9
20260507080904 49 289 0.0 5.0 0.07 0.21 0.12 90 1008.0
20260507080405 49 315 0.0 6.0 0.07 0.21 0.12 90 1008.1
20260507075904 49 315 1.0 8.0 0.08 0.21 0.12 90 1008.3
20260507075404 49 271 3.0 8.0 0.07 0.20 0.11 90 1008.0
20260507074405 49 305 3.0 12.0 0.06 0.19 0.10 90 1008.0
20260507073904 49 293 6.0 10.0 0.05 0.18 0.09 90 1007.9
20260507073405 49 283 4.0 10.0 0.03 0.15 0.06 90 1008.2
20260507072904 49 285 1.0 9.0 0.03 0.15 0.06 90 1007.7
20260507071904 49 286 3.0 12.0 0.02 0.14 0.05 89 1007.9
20260507071404 50 306 6.0 12.0 0.02 0.14 0.05 89 1008.0
20260507070904 50 299 4.0 10.0 0.03 0.14 0.05 88 1007.7
20260507070404 50 293 5.0 12.0 0.03 0.14 0.05 88 1007.7
20260507065904 50 302 5.0 12.0 0.02 0.13 0.04 88 1007.7
20260507065404 50 309 5.0 12.0 0.02 0.13 0.04 88 1007.8
20260507064905 50 291 2.0 9.0 0.03 0.13 0.04 87 1007.8
20260507064404 50 260 2.0 12.0 0.03 0.13 0.04 87 1007.9
20260507062904 51 289 0.0 0.0 0.03 0.12 0.03 87 1007.7
20260507062404 51 286 0.0 0.0 0.03 0.12 0.03 86 1007.5
20260507061904 51 315 2.0 10.0 0.03 0.12 0.03 86 1008.0
20260507060904 51 303 0.0 3.0 0.02 0.11 0.02 85 1006.9
20260507060405 51 317 0.0 8.0 0.02 0.11 0.02 85 1007.6
20260507055905 51 318 4.0 9.0 0.02 0.11 0.02 84 1007.6
20260507055404 52 308 1.0 7.0 0.02 0.11 0.02 84 1007.5
20260507054904 52 332 3.0 8.0 0.01 0.10 0.01 83 1007.9
20260507052905 53 314 5.0 9.0 0.00 0.09 0.00 79 1006.9
20260507052405 53 308 5.0 12.0 0.00 0.09 0.00 78 1006.9
20260507051905 53 295 4.0 12.0 0.00 0.09 0.00 77 1007.0
20260507051404 54 270 1.0 10.0 0.00 0.09 0.00 77 1007.0
20260507050904 54 299 5.0 10.0 0.00 0.09 0.00 77 1007.3
20260507045904 54 305 0.0 3.0 0.00 0.09 0.00 77 1007.4
20260507045406 54 318 4.0 8.0 0.00 0.09 0.00 77 1007.3
20260507044904 54 325 4.0 8.0 0.00 0.09 0.00 77 1007.3
20260507044405 54 305 2.0 9.0 0.00 0.09 0.00 76 1007.1
20260507043905 54 318 2.0 10.0 0.00 0.09 0.00 76 1007.3
20260507043404 54 298 5.0 10.0 0.00 0.09 0.00 77 1007.3
20260507042905 55 322 5.0 9.0 0.00 0.09 0.00 77 1007.3
20260507042404 55 341 3.0 8.0 0.00 0.09 0.00 78 1007.4
20260507041904 55 303 1.0 3.0 0.00 0.09 0.00 78 1007.4
20260507041404 55 329 2.0 9.0 0.00 0.09 0.00 78 1007.3
20260507040905 55 312 3.0 10.0 0.00 0.09 0.00 78 1007.4
20260507040405 55 293 1.0 9.0 0.00 0.09 0.00 78 1007.4
20260507035905 55 280 3.0 9.0 0.00 0.09 0.09 78 1007.3
20260507035404 55 281 2.0 10.0 0.00 0.09 0.09 78 1007.4
20260507034905 55 324 5.0 10.0 0.00 0.09 0.09 78 1007.4
20260507034404 55 289 3.0 12.0 0.00 0.09 0.09 78 1007.4
20260507033904 55 303 2.0 8.0 0.00 0.09 0.09 78 1007.3
20260507033405 55 294 3.0 9.0 0.00 0.09 0.09 78 1007.1
20260507032904 55 298 2.0 8.0 0.00 0.09 0.09 78 1007.3
20260507032405 55 316 2.0 13.0 0.00 0.09 0.09 78 1007.2
20260507031905 55 304 4.0 9.0 0.00 0.09 0.09 78 1007.1
20260507031406 56 304 5.0 12.0 0.00 0.09 0.09 78 1006.9